Regional Weather Roundup
Issued by NWS

Home | Current Version | Previous Version | Graphics & Text | Print | Product List | Glossary On
Versions: 1 2 3 4 5 6 7 8 9 10 11 12 13 14 15 16 17 18 19 20 21 22 23 24 25 26 27 28 29 30 31 32 33 34 35 36 37 38 39 40 41 42 43 44 45 46 47 48 49 50
000
ASUS43 KMKX 191921
RWRWI

WISCONSIN REGIONAL WEATHER ROUNDUP
NATIONAL WEATHER SERVICE MILWAUKEE/SULLIVAN WI
200 PM CDT FRI SEP 19 2014

NOTE: "FAIR" INDICATES FEW OR NO CLOUDS BELOW 12,000 FEET WITH NO
SIGNIFICANT WEATHER AND/OR OBSTRUCTIONS TO VISIBILITY.

WIZ001-002-006>008-014>016-023>028-192000-
NORTHWEST WISCONSIN

CITY           SKY/WX    TMP DP  RH WIND       PRES   REMARKS
SUPERIOR ARPT  CLOUDY    65  58  78 SW10      29.66F
ASHLAND        CLOUDY    67  55  65 SW18G29   29.73S
HAYWARD        CLOUDY    66  55  67 S17G28    29.76F
SIREN          CLOUDY    68  57  67 S14       29.72F
RICE LAKE      PTSUNNY   69  55  60 S17G28    29.78F
LADYSMITH      CLOUDY    68  56  65 S16G23    29.81F
EAU CLAIRE     PTSUNNY   72  56  57 S24G33    29.79F
MENOMONIE      PTCLDY    74  57  54 SE23G30   29.76F
NEW RICHMOND   CLOUDY    73  58  59 S20       29.74F
OSCEOLA        CLOUDY    72  60  64 S15G21    29.74F
$$

WIZ003>005-009-010-017-018-192000-
NORTH CENTRAL WISCONSIN

CITY           SKY/WX    TMP DP  RH WIND       PRES   REMARKS
WOODRUFF       CLOUDY    64  52  64 SW18G28   29.83S
RHINELANDER    PTSUNNY   63  50  62 S20G33    29.83F
EAGLE RIVER    CLOUDY    64  48  55 S12G22    29.80F
LAND O LAKES   CLOUDY    64  49  58 S16G28    29.77F
PHILLIPS       PTSUNNY   66  54  64 S17G29    29.81R
TOMAHAWK       PTSUNNY   64  52  64 S8        29.84F
MEDFORD        MOSUNNY   66  53  63 S18G30    29.85F
MERRILL        PTSUNNY   66  51  58 S20G28    29.88F
$$

WIZ029-030-035-036-043>047-192000-
CENTRAL WISCONSIN

CITY           SKY/WX    TMP DP  RH WIND       PRES   REMARKS
WAUSAU         MOSUNNY   70  50  49 S21G30    29.88F
MOSINEE        SUNNY     70  52  52 S23G29    29.92F
MARSHFIELD     MOSUNNY   70  54  56 S17G29    29.89F
STEVENS POINT  SUNNY     69  50  49 S21G31    29.92F
WAUPACA        SUNNY     74  53  46 S17       29.95F
WAUTOMA        MOSUNNY   74  53  47 S14G25    29.95F
WISC RAPIDS    SUNNY     71  53  52 SW16G24   29.93F
CAMP DOUGLAS   PTSUNNY   72  54  53 S21G31    29.92F
$$

WIZ011>013-019>022-031-037>040-048>050-192000-
NORTHEAST WISCONSIN

CITY           SKY/WX    TMP DP  RH WIND       PRES   REMARKS
ANTIGO         PTSUNNY   65  52  61 S21G30    29.90F
STURGEON BAY   PTSUNNY   63  55  77 S21G31    29.97F
GREEN BAY      PTSUNNY   72  52  49 S14G26    29.96F
MANITOWOC      MOSUNNY   64  58  80 S24G33    29.99F
APPLETON       PTSUNNY   70  48  46 S25G31    29.97F
CLINTONVILLE   MOSUNNY   72  50  46 S18G25    29.94F
OSHKOSH        SUNNY     73  52  47 S24G32    29.96F
$$

WIZ032>034-041-042-053>061-192000-
SOUTHWEST WISCONSIN

CITY           SKY/WX    TMP DP  RH WIND       PRES   REMARKS
LA CROSSE      SUNNY     75  56  51 S23G30    29.87F
SPARTA         MOSUNNY   71  52  50 S16G24    29.92S
VIROQUA        FAIR      71  55  55 S16G26    29.95S
BOSCOBEL       SUNNY     76  54  46 S15G25    29.96F
PRAIRIE DU CHI SUNNY     74  51  44 S15G22    29.94F
PLATTEVILLE    FAIR      73  53  51 S20G25    30.01F
$$

WIZ056-057-062-063-064-067-068-192000-
SOUTH CENTRAL WISCONSIN

CITY           SKY/WX    TMP DP  RH WIND       PRES   REMARKS
BARABOO/DELLS  SUNNY     73  50  44 SW22      29.96F
LONE ROCK      SUNNY     76  53  44 S21       29.97F
WATERTOWN      SUNNY     72  50  45 S20G26    30.01F
MADISON        MOSUNNY   73  50  44 S17G29    30.00F
MIDDLETON      FAIR      74  49  41 S16G24    30.00F
MONROE         SUNNY     72  50  46 S18G26    30.02F
JANESVILLE     SUNNY     73  46  38 S18G25    30.02
$$

WIZ051-052-058>065-066-070>072-192000-
SOUTHEAST WISCONSIN

CITY           SKY/WX    TMP DP  RH WIND       PRES   REMARKS
MILWAUKEE      MOSUNNY   73  50  44 S14       30.05F
WAUKESHA       SUNNY     70  48  46 S13       30.06F
MILWAUKEE/TIMM SUNNY     72  46  40 S14G25    30.06F
RACINE         SUNNY     69  54  58 S14G23    30.08F
BURLINGTON     SUNNY     72  48  43 S17G23    30.05F
KENOSHA        SUNNY     73  51  46 SW14      30.07F
FOND DU LAC    SUNNY     72  51  47 S21G26    29.98F
SHEBOYGAN      MOSUNNY   70  56  61 S13G23    30.01F
WEST BEND      SUNNY     72  45  37 S17G23    30.01F
JUNEAU         SUNNY     71  49  46 S21G28    30.02F
$$

LSZ147-162-192000-
LAKE SUPERIOR

STATION/POSITION TIME  TEMP    WIND        PRES    WAVE
                       AIR SEA DIR/SP/G            HT/PER
                 (UTC) (F)     (DEG/KT/KT) (MB)    (FT/S)
W MID LAKE BUOY  1850   52 48  250/  4/  6 1007.0R   2/ 5
DEVILS ISLAND    1900   59     210/  6/  8 1006.1F
PORT WING        1800   66     220/ 12/ 23 1006.8R
SAXON HARBOR     1840   71     200/  9/ 23 1006.4R
$$

LMZ867-665-643>646-192000-
LAKE MICHIGAN

STATION/POSITION TIME  TEMP    WIND        PRES    WAVE
                       AIR SEA DIR/SP/G            HT/PER
                 (UTC) (F)     (DEG/KT/KT) (MB)    (FT/S)
N MID LAKE BUOY  1850   58 58  190/ 25/ 29 1015.3F   6/ 6
NORTHPORT PIER   1823   60     160/ 12/ 28 1015.6F
SISTER BAY       1712   65     200/ 22/ 27   N/A
KEWAUNEE LAKESHO 1900   57     180/ 16/ 18 1014.8F
SHEBOYGAN LAKESH 1900   57 54  170/ 16/ 17 1016.8F
PORT WASHINGTON  1900   65     190/  6/ 14 1017.3
ATWATER BUOY     1900   61     160/ 17/ 21 1018.2F
MILWAUKEE LAKESH 1900   61     150/ 17/ 21   N/A
S MID LAKE BUOY  1850   64 65  180/ 16/ 17 1019.3F   3/ 6
KENOSHA   LAKESH 1900   63     170/ 14/ 15 1017.6F
$$

TC  - TEMPERATURE IN CELSIUS
VSB - VISIBILITY IN STATUTE MILES
WCI - WIND CHILL INDEX
HX  - HEAT INDEX



USA.gov is the U.S. government's official web portal to all federal, state and local government web resources and services.